IRIDIUM 158

Last updated on Fri Sep 11 2026 00:03:06 GMT+0000 (Coordinated Universal Time)

1 43571U 18061C 26253.38090737 .00000149 00000+0 46315-4 0 9997 2 43571 86.3997 21.1237 0002228 92.9820 267.1631 14.34217638425572
UTC large
Height (km)
Speed (km/s)
/
Latitude / Longitude
Inclination (degrees)
Orbital Period (minutes)
Azimuth
Elevation
Range (km)
Doppler Factor

Next 0 passes for location: London (51.5072 / 0.1276)

No passes found over London.
IRIDIUM 158